Weather History for KWVI - November, 2012

Change the Weather History Date:

Monday, November 5, 2012

  Actual Average Record
Temperature  
Mean Temperature 73 °F 57 °F  
Max Temperature 93 °F 69 °F 93 °F (2012)
Min Temperature 52 °F 45 °F 38 °F (2011)
Degree Days  
Heating Degree Days 0    
Month to date heating degree days 16  
Since 1 July heating degree days 504  
Cooling Degree Days 8    
Month to date cooling degree days 10  
Year to date cooling degree days 78  
Growing Degree Days 22 (Base 50)    
Moisture  
Dew Point 45 °F    
Average Humidity 45    
Maximum Humidity 77    
Minimum Humidity 13    
Precipitation  
Precipitation 0.00 in - 0.88 in (2011)
Month to date precipitation 0.13  
Year to date precipitation 12.51  
Since 1 July precipitation 0.58  
Sea Level Pressure  
Sea Level Pressure 30.07 in    
Wind  
Wind Speed 3 mph (NW)    
Max Wind Speed 7 mph    
Max Gust Speed 9 mph    
Visibility 10 miles    
Events      
T = Trace of Precipitation, MM = Missing Value Source: NWS Daily Summary

Daily Weather History Graph

Daily Weather History Graph

Search for Another Location

Airport or City:

Trip Planner

Search our weather history database for the weather conditions in past years. The results will help you decide how hot, cold, wet, or windy it might be!

Date:

Astronomy

Nov. 05, 2012 Rise Set
Actual Time 6:35 AM PST 5:05 PM PST
Civil Twilight 6:08 AM PST 5:32 PM PST
Nautical Twilight 5:37 AM PST 6:03 PM PST
Astronomical Twilight 5:07 AM PST 6:33 PM PST
Moon 10:47 PM PST (11/5) 11:58 AM PST (11/5)
Length of Visible Light 11h 23m
Length of Day
10h 29m
Waning Gibbous, 62% of the Moon is Illuminated
Nov 5
Waning Gibbous
Nov 6
Last Quarter
Nov 13
New
Nov 20
First Quarter
Nov 28
Full

Hourly Weather History & Observations

Time (PST) Temp. Dew Point Humidity Pressure Visibility Wind Dir Wind Speed Gust Speed Precip Events Conditions
12:53 AM 59.0 °F 46.9 °F 64% 30.13 in 10.0 mi WNW 3.5 mph - N/A   Clear
1:53 AM 57.0 °F 46.9 °F 69% 30.12 in 10.0 mi WNW 4.6 mph - N/A   Clear
2:53 AM 57.0 °F 46.9 °F 69% 30.10 in 10.0 mi North 3.5 mph - N/A   Clear
3:53 AM 55.0 °F 46.9 °F 74% 30.09 in 10.0 mi Calm Calm - N/A   Clear
4:53 AM 57.0 °F 48.0 °F 72% 30.10 in 10.0 mi ENE 3.5 mph - N/A   Clear
5:53 AM 55.0 °F 46.9 °F 74% 30.11 in 10.0 mi Calm Calm - N/A   Clear
6:53 AM 53.1 °F 46.9 °F 80% 30.12 in 10.0 mi Calm Calm - N/A   Clear
7:53 AM 60.1 °F 48.0 °F 64% 30.13 in 10.0 mi Calm Calm - N/A   Clear
8:53 AM 69.1 °F 48.9 °F 49% 30.12 in 10.0 mi East 5.8 mph - N/A   Clear
9:53 AM 75.0 °F 48.0 °F 38% 30.11 in 10.0 mi East 4.6 mph - N/A   Clear
10:53 AM 81.0 °F 46.9 °F 30% 30.10 in 10.0 mi East 5.8 mph - N/A   Clear
11:53 AM 84.0 °F 45.0 °F 25% 30.07 in 10.0 mi Variable 4.6 mph - N/A   Clear
12:53 PM 88.0 °F 42.1 °F 20% 30.04 in 10.0 mi Calm Calm - N/A   Clear
1:53 PM 91.0 °F 37.9 °F 15% 30.01 in 10.0 mi Calm Calm - N/A   Clear
2:53 PM 91.9 °F 34.0 °F 13% 30.01 in 10.0 mi Calm Calm - N/A   Clear
3:53 PM 90.0 °F 41.0 °F 18% 30.01 in 10.0 mi South 3.5 mph - N/A   Clear
4:53 PM 75.0 °F 46.9 °F 37% 30.01 in 10.0 mi South 4.6 mph - N/A   Clear
5:53 PM 71.1 °F 51.1 °F 49% 30.03 in 10.0 mi Calm Calm - N/A   Clear
6:53 PM 66.9 °F 48.9 °F 52% 30.04 in 10.0 mi NW 4.6 mph - N/A   Clear
7:53 PM 64.0 °F 45.0 °F 50% 30.05 in 10.0 mi NW 5.8 mph - N/A   Clear
8:53 PM 63.0 °F 44.1 °F 50% 30.05 in 10.0 mi NW 4.6 mph - N/A   Clear
9:53 PM 63.0 °F 44.1 °F 50% 30.05 in 10.0 mi Calm Calm - N/A   Clear
10:53 PM 61.0 °F 45.0 °F 56% 30.05 in 10.0 mi WNW 3.5 mph - N/A   Clear
11:53 PM 59.0 °F 43.0 °F 55% 30.05 in 10.0 mi WNW 4.6 mph - N/A   Clear